Flag for Russia Weather past 2 weeks in Kemerovo, Russia

Now
68 °F

Sunny.


Feels Like: 68 °F
Forecast: 56 / 72 °F
Wind: 8 mph from South

Location: Kemerovo

Current Time: Jul 28, 2015 at 11:31:38 AM

Latest Report: Jul 28, 2015 at 10:30 AM


Visibility: 10 mi

Pressure: 29.56 "Hg

Humidity: 69%

Dew point: 57 °F

Location of KemerovoLocation

Historic Weather in Kemerovo — Graph

°F

Kemerovo temperature yesterday

Maximum temperature yesterday: 77 °F (at 2:30 PM)
Minimum temperature yesterday: 55 °F (at 5:30 AM)
Average temperature yesterday: 67 °F

Past Weeks' High & Low Weather Summary

 TemperatureHumidityPressure
High91 °F (Jul 14, 4:00 PM)94% (Jul 24, 7:00 AM)29.98 "Hg (Jul 24, 7:00 AM)
Low55 °F (Jul 27, 5:30 AM)32% (Jul 17, 1:00 PM)29.45 "Hg (Jul 26, 1:00 AM)
Average71 °F64%29.76 "Hg
* Reported Jul 13 10:00 AM — Jul 28 10:00 AM, Kemerovo, Weather by CustomWeather, © 2015

Note: Actual official high and low records may vary slightly from our data, if they occured in-between our weather recording intervals... More about our weather records

Advertising

Kemerovo weather history for previous 24 hours

 ConditionsComfort  
Time TempWeatherWind HumidityBarometerVisibility
10:00 AM
Tue, Jul 28
68 °FSunny.10 mph73%29.53 "Hg10 mi
9:30 AM64 °FSunny.13 mph83%29.53 "Hg10 mi
9:00 AM64 °FSunny.10 mph78%29.53 "Hg10 mi
8:30 AM63 °FSunny.8 mph83%29.53 "Hg10 mi
8:00 AM61 °FSunny.8 mph88%29.53 "Hg10 mi
7:30 AM59 °FSunny.8 mph94%29.56 "Hg10 mi
7:00 AM59 °FSunny.8 mph88%29.56 "Hg10 mi
6:30 AM59 °FSunny.6 mph88%29.56 "Hg10 mi
6:00 AM59 °FClear.6 mph88%29.56 "Hg10 mi
5:30 AM59 °FPassing clouds.6 mph88%29.56 "Hg5 mi
5:00 AM57 °FClear.3 mph88%29.56 "Hg10 mi
4:30 AM59 °FPassing clouds.6 mph88%29.56 "HgN/A
4:00 AM59 °FPassing clouds.3 mph88%29.56 "HgN/A
3:30 AM59 °FPassing clouds.1 mph88%29.56 "HgN/A
3:00 AM61 °FSprinkles. Passing clouds.6 mph83%29.56 "Hg6 mi
2:30 AM61 °FSprinkles. Passing clouds.6 mph83%29.59 "Hg6 mi
2:00 AM63 °FClear.10 mph77%29.56 "Hg10 mi
1:30 AM63 °FClear.10 mph77%29.56 "Hg10 mi
1:00 AM64 °FClear.13 mph68%29.56 "Hg10 mi
12:30 AM66 °FClear.10 mph64%29.53 "Hg10 mi
12:00 AM68 °FClear.8 mph60%29.53 "Hg10 mi
11:30 PM
Mon, Jul 27
68 °FClear.8 mph60%29.53 "Hg10 mi
11:00 PM68 °FClear.8 mph60%29.53 "Hg10 mi
10:30 PM66 °FClear.6 mph64%29.56 "Hg10 mi
10:00 PM66 °FSunny.6 mph64%29.56 "Hg10 mi
9:30 PM68 °FSunny.6 mph60%29.56 "Hg10 mi
9:00 PM70 °FSunny.6 mph57%29.56 "Hg10 mi
8:30 PM72 °FSunny.6 mph53%29.56 "Hg10 mi
8:00 PM73 °FSunny.6 mph50%29.56 "Hg10 mi
7:30 PM75 °FSunny.8 mph44%29.56 "Hg10 mi
7:00 PM75 °FSunny.10 mph44%29.56 "Hg10 mi
6:30 PM77 °FSunny.10 mph44%29.56 "Hg10 mi
6:00 PM77 °FSunny.10 mph44%29.59 "Hg10 mi
5:30 PM77 °FSunny.8 mph44%29.59 "Hg10 mi
5:00 PM77 °FSunny.10 mph44%29.59 "Hg10 mi
4:30 PM75 °FSunny.8 mph44%29.59 "Hg10 mi
4:00 PM75 °FSunny.10 mph44%29.59 "Hg10 mi
3:30 PM77 °FSunny.10 mph47%29.59 "Hg10 mi
3:00 PM77 °FSunny.10 mph44%29.59 "Hg10 mi
2:30 PM77 °FSunny.13 mph47%29.59 "Hg10 mi
2:00 PM75 °FSunny.10 mph50%29.59 "Hg10 mi
1:30 PM75 °FSunny.13 mph54%29.62 "Hg10 mi
1:00 PM73 °FScattered clouds.10 mph65%29.62 "HgN/A
12:30 PM72 °FPassing clouds.10 mph69%29.62 "HgN/A
12:00 PM72 °FPassing clouds.10 mph73%29.62 "HgN/A
11:30 AM68 °FSunny.8 mph83%29.65 "Hg10 mi
11:00 AM66 °FScattered clouds.8 mph88%29.65 "HgN/A
Weather by CustomWeather, © 2015

See weather overviewHow to use our weather pages